CAPE
0 0 0 0 0 0 0 1 17 0 10 17 0 4 0 0 0 0 14 9 0 0 0 0 0 0 0 0 0 0 0 0 0 0 116 237 323 503 506 303 296 325 501 695 783 638 500 506 280
0 0 0 0 0 0 0 0 0 0 0 0 0 0 0 0 16 8 51 0 0 0 0 0 9 9 15 0 27 39 75 83 4 0 0 89 105 185 332 387 320 277 320 494 437 325 193 85 64
0 0 0 0 0 0 0 0 0 0 0 18 0 0 0 0 32 50 43 0 0 0 0 21 108 122 131 144 107 28 18 17 260 33 0 9 220 291 256 66 123 208 246 314 227 77 72 105 38
0 0 0 0 0 0 0 0 146 92 3 5 0 0 0 0 26 86 14 0 0 0 20 260 228 150 115 5 0 0 0 0 0 261 85 0 52 137 272 182 29 101 43 112 101 25 0 16 0
0 0 0 0 0 0 0 0 203 1 98 67 0 0 0 39 88 44 0 0 0 0 132 166 95 75 14 0 0 0 0 0 0 0 0 0 0 192 359 236 38 1 0 0 0 0 0 0 0
0 0 0 0 0 0 0 0 14 15 35 3 0 0 0 140 5 0 0 0 0 0 150 241 76 40 1 0 0 0 0 0 0 0 0 0 0 128 392 242 0 0 0 0 0 0 0 0 0
0 0 0 0 0 0 0 0 0 0 0 0 0 0 13 75 0 0 0 0 0 0 4 110 0 35 10 0 0 0 0 0 0 0 0 0 0 0 7 5 0 0 0 0 0 0 0 0 0
0 0 0 0 0 0 0 0 0 0 0 53 0 0 0 33 0 0 0 0 0 0 0 0 4 0 0 0 0 0 0 0 0 0 0 0 0 0 0 0 0 0 0 0 0 0 0 0 0
0 0 0 0 0 0 0 0 0 3 4 74 24 0 0 0 0 0 0 0 0 0 0 0 0 0 0 0 0 0 0 0 0 0 0 0 0 0 0 0 0 0 0 0 0 0 0 0 0
0 0 0 0 0 0 0 0 5 49 29 55 1 0 0 0 0 0 0 0 0 0 0 0 0 0 0 0 0 0 0 0 0 0 0 0 0 0 0 0 0 0 0 0 0 0 0 0 0
0 0 0 0 0 0 0 0 0 32 30 0 0 0 0 0 0 0 0 0 0 0 0 0 0 0 0 0 0 0 0 0 0 0 0 0 0 0 0 0 0 0 0 0 0 0 0 0 0
0 0 0 0 0 0 0 0 17 19 62 0 0 0 0 0 0 0 0 0 0 0 0 0 0 0 0 0 0 0 0 0 0 0 0 0 0 0 0 0 0 0 0 0 0 0 0 0 0
0 0 0 0 0 0 0 1 16 64 45 0 0 0 0 0 0 0 0 0 0 0 0 0 0 0 0 0 0 0 0 0 0 0 0 0 0 0 4 0 0 0 0 0 0 0 0 0 0
0 0 0 0 0 0 0 44 135 163 39 0 0 0 0 0 0 0 0 0 0 0 0 0 0 0 0 1 0 0 0 0 0 0 0 0 0 9 16 17 0 0 0 0 0 0 0 0 0
0 0 0 0 0 0 35 197 280 176 56 0 0 0 0 0 0 0 0 0 0 0 0 0 0 0 5 1 0 0 0 0 0 0 0 2 24 57 103 47 32 42 45 36 36 83 129 87 6
0 0 0 0 0 0 0 0 260 172 88 11 3 0 0 0 0 0 0 0 0 0 0 0 0 0 0 4 0 0 0 0 0 0 0 17 94 160 228 348 220 358 331 335 386 443 556 430 226
0 0 0 0 0 0 0 0 70 220 162 95 35 28 31 10 2 0 0 0 0 0 0 0 0 0 0 0 0 0 0 0 0 2 3 4 158 213 210 266 310 276 226 216 354 581 686 705 613
0 0 0 0 0 0 0 0 0 263 264 217 135 92 87 63 74 16 0 0 0 0 0 0 0 0 0 0 4 0 3 4 23 34 28 15 15 73 179 181 149 168 269 263 352 531 566 570 608
0 0 0 0 0 0 0 0 0 172 316 269 226 144 86 42 68 15 0 0 0 0 0 0 0 0 0 0 0 0 0 0 0 0 0 0 12 25 60 130 182 244 319 241 215 308 354 466 698
0 0 0 0 0 0 0 0 0 20 253 311 274 216 179 103 68 20 0 0 0 0 0 0 0 0 0 0 0 0 0 0 0 0 15 42 84 140 112 98 107 161 271 387 357 443 640 713 712
0 0 0 0 0 0 0 0 0 0 103 178 171 204 188 114 69 47 2 0 0 0 0 0 0 0 0 0 0 5 23 48 153 414 569 817 1043 1212 1068 551 291 198 176 312 533 791 801 784 598
0 0 0 0 0 0 0 0 0 0 20 230 228 133 125 36 23 8 0 0 0 0 0 0 0 0 0 0 2 8 1 21 335 972 923 895 728 812 825 628 529 457 525 676 798 575 638 518 586
0 0 0 0 0 0 0 0 0 0 0 174 210 199 43 25 77 63 77 97 14 0 1 2 2 1 0 0 18 78 161 503 1346 995 832 584 294 229 313 393 454 456 402 254 238 201 173 193 265
0 0 0 0 0 0 0 0 0 0 6 27 419 577 517 470 420 458 514 476 324 348 312 394 275 320 653 679 297 346 823 1457 1433 876 682 289 114 38 17 35 53 14 18 2 0 0 0 0 0
0 0 0 0 0 0 0 0 0 0 113 577 897 897 803 731 631 683 724 757 725 661 675 743 826 836 1017 1190 1122 1002 958 831 646 400 275 168 51 1 0 0 0 0 0 0 0 0 0 0 0
0 0 0 0 0 0 0 0 0 51 348 967 816 795 845 830 717 667 660 638 584 651 661 699 784 648 614 498 443 441 421 329 196 141 63 3 0 0 0 0 0 0 0 0 0 0 0 0 0
0 0 0 0 0 0 0 352 751 631 691 989 981 944 925 851 727 694 645 624 552 78 221 308 365 231 147 155 155 125 84 76 40 1 0 0 0 0 0 0 0 0 0 0 0 0 0 0 0
0 0 0 0 0 0 0 0 0 517 745 1133 1055 938 812 705 670 563 475 419 264 46 63 33 31 33 6 3 2 0 0 0 0 0 0 0 0 0 0 0 0 0 0 0 0 0 0 0 0
0 0 0 0 0 0 0 0 673 705 966 1114 954 506 249 272 338 323 210 81 30 22 18 0 0 0 0 1 0 0 0 0 0 0 0 0 0 0 0 0 0 0 0 0 0 0 0 0 0
0 0 0 0 0 0 0 0 555 970 1056 1044 654 96 81 66 59 106 8 4 0 1 0 0 0 0 0 0 0 0 0 0 0 0 0 0 0 0 0 0 0 0 0 0 0 0 0 0 0
CIN
0 0 0 0 0 0 -16 -8 -61 0 -21 -79 0 -50 0 0 0 0 -327 -246 0 0 0 0 0 0 0 0 0 0 0 0 0 0 -60 -29 -35 -16 -3 -9 -9 -5 0 0 -3 -12 -16 -14 -34
0 0 0 0 0 0 0 0 0 0 0 0 0 0 0 0 -283 -251 -333 0 0 0 0 0 -313 -118 -97 0 -114 -99 -118 -116 -42 0 0 -84 -90 -76 -47 -25 -17 -17 -14 -7 -23 -33 -45 -76 -93
0 0 0 0 0 0 0 0 0 0 0 -171 0 0 0 0 -395 -355 -394 0 0 0 0 -339 -180 -164 -158 -138 -131 -172 -58 -53 -47 -25 0 -65 -62 -39 -44 -94 -60 -25 -18 -14 -37 -98 -90 -68 -142
0 0 0 0 0 0 0 0 -166 -181 -278 -255 0 0 0 0 -367 -368 -544 0 0 0 -367 -141 -147 -155 -175 -319 0 0 0 0 -2 -78 -134 0 -146 -83 -24 -35 -130 -57 -107 -73 -91 -194 0 -198 0
0 0 0 0 0 0 0 0 -193 -18 -179 -214 0 0 0 -446 -429 -536 0 0 0 0 -250 -199 -228 -227 -302 0 0 0 0 0 0 0 0 0 0 -74 -18 -30 -127 -25 0 0 0 0 0 0 0
0 0 0 0 0 0 0 0 -401 -337 -315 -343 0 0 0 -481 -241 0 0 0 0 0 -285 -176 -270 -293 -71 0 0 0 0 0 0 0 0 0 0 -109 -21 -49 -44 0 0 0 0 0 0 0 0
0 0 0 0 0 0 0 0 0 0 0 0 0 0 -338 -533 0 0 0 0 0 0 -100 -294 0 -202 -366 0 0 0 0 0 0 0 0 0 0 0 -36 -37 0 0 0 0 0 0 0 0 0
0 0 0 0 0 0 0 0 0 0 -8 -400 0 0 0 -601 0 0 0 0 0 0 0 0 -320 0 0 0 0 0 0 0 0 0 0 0 0 0 0 0 0 0 0 0 0 0 0 0 0
0 0 0 0 0 0 0 0 0 -103 -282 -344 -475 0 0 0 0 0 0 0 0 0 0 0 0 0 0 0 0 0 0 0 0 0 0 0 0 0 0 0 0 0 0 0 0 0 0 0 0
0 0 0 0 0 0 0 0 -151 -220 -304 -358 -206 0 0 0 0 0 0 0 0 0 0 0 0 0 0 0 0 0 0 0 0 0 0 0 0 0 0 0 0 0 0 0 0 0 0 0 0
0 0 0 0 0 0 0 0 0 -221 -233 0 0 0 0 0 0 0 0 0 0 0 0 0 0 0 0 0 0 0 0 0 0 0 0 0 0 0 0 0 0 0 0 0 0 0 0 0 0
0 0 0 0 0 0 0 0 -252 -268 -198 0 0 0 0 0 0 0 0 0 0 0 0 0 0 0 0 0 0 0 0 0 0 0 0 0 0 0 0 0 0 0 0 0 0 0 0 0 0
0 0 0 0 0 0 0 -294 -275 -206 -364 0 0 0 0 0 0 0 0 0 0 0 0 0 0 0 0 0 0 0 0 0 0 0 0 0 0 0 -436 0 0 0 0 0 0 0 0 0 0
0 0 0 0 0 0 0 -277 -188 -240 -443 0 0 0 0 0 0 0 0 0 0 0 0 0 0 0 0 -38 0 0 0 0 0 0 0 0 0 -449 -426 -422 0 0 0 0 0 0 0 0 0
0 0 0 0 0 0 -252 -159 -120 -262 -421 -95 0 0 0 0 0 0 0 0 0 0 0 0 0 0 -621 -594 -31 0 0 0 0 0 0 -89 -446 -409 -375 -410 -424 -401 -386 -377 -376 -279 -235 -242 -81
0 0 0 0 0 0 0 0 -139 -317 -349 -409 -518 0 0 0 0 0 0 0 0 0 0 0 0 0 0 -476 0 0 0 0 0 0 0 -445 -416 -384 -359 -298 -316 -252 -243 -227 -195 -144 -87 -100 -140
0 0 0 0 0 0 0 0 -200 -281 -316 -338 -422 -479 -521 -543 -230 0 0 0 0 0 0 0 0 0 0 0 0 0 0 0 0 -358 -536 -531 -392 -366 -362 -315 -259 -251 -247 -255 -206 -127 -88 -54 -58
0 0 0 0 0 0 0 0 0 -182 -248 -266 -347 -421 -423 -401 -388 -439 0 0 0 0 0 0 0 0 0 0 -322 0 -438 -438 -546 -537 -526 -520 -485 -416 -345 -314 -293 -252 -201 -159 -140 -88 -92 -78 -53
0 0 0 0 0 0 0 0 0 -194 -230 -272 -287 -336 -337 -337 -346 -487 0 0 0 0 0 0 0 0 0 0 0 0 0 -2 -1 -2 -2 -2 -475 -455 -409 -344 -287 -235 -191 -167 -160 -128 -110 -65 -56
0 0 0 0 0 0 0 0 0 -71 -231 -181 -220 -250 -256 -313 -339 -436 0 0 0 0 0 0 0 0 0 0 0 0 0 0 0 0 -445 -480 -445 -381 -384 -358 -319 -249 -189 -138 -118 -91 -80 -80 -72
0 0 0 0 0 0 0 0 0 0 -315 -269 -314 -264 -252 -259 -290 -378 -224 0 0 0 0 0 0 0 0 0 0 -437 -515 -445 -361 -296 -275 -256 -205 -152 -133 -203 -241 -258 -241 -157 -110 -66 -39 -38 -74
0 0 0 0 0 0 0 0 0 0 -158 -265 -239 -296 -252 -354 -403 -452 0 0 0 0 0 0 0 0 0 0 -493 -460 -353 -370 -296 -194 -205 -227 -275 -231 -195 -212 -221 -242 -220 -125 -99 -111 -63 -81 -55
0 0 0 0 0 0 0 0 0 0 0 -312 -283 -258 -333 -443 -386 -411 -498 -552 -500 -20 -42 -42 -38 -38 0 -33 -449 -401 -367 -261 -108 -177 -194 -245 -342 -383 -330 -288 -247 -224 -210 -244 -237 -225 -213 -134 -114
0 0 0 0 0 0 0 0 0 0 -84 -353 -300 -342 -382 -460 -483 -528 -595 -571 -585 -592 -547 -461 -411 -415 -351 -319 -375 -328 -199 -93 -80 -155 -171 -261 -361 -460 -325 -454 -428 -401 -392 -164 0 0 0 0 0
0 0 0 0 0 0 0 0 0 0 -264 -327 -399 -483 -537 -547 -519 -500 -469 -464 -486 -476 -471 -433 -372 -343 -326 -280 -241 -223 -169 -169 -172 -212 -245 -285 -374 -48 0 0 0 0 0 0 0 0 0 0 0
0 0 0 0 0 0 0 0 0 -295 -379 -349 -411 -445 -448 -437 -424 -431 -439 -408 -364 -365 -362 -330 -327 -351 -359 -325 -342 -332 -278 -301 -311 -326 -371 -54 0 0 0 0 0 0 0 0 0 0 0 0 0
0 0 0 0 0 0 0 -192 -210 -350 -366 -331 -317 -329 -350 -371 -391 -390 -374 -366 -331 -186 -220 -276 -354 -384 -408 -404 -385 -369 -383 -412 -446 -154 0 0 0 0 0 0 0 0 0 0 0 0 0 0 0
0 0 0 0 0 0 0 0 0 -259 -296 -248 -265 -321 -339 -384 -392 -367 -382 -370 -318 -216 -249 -335 -442 -474 -453 -295 -201 0 -45 0 0 0 0 0 0 0 0 0 0 0 0 0 0 0 0 0 0
0 0 0 0 0 0 0 0 -212 -235 -276 -244 -239 -375 -439 -431 -405 -443 -500 -514 -508 -270 -417 0 0 0 0 -509 0 0 0 0 0 0 0 0 0 0 0 0 0 0 0 0 0 0 0 0 0
0 0 0 0 0 0 0 0 -314 -196 -223 -227 -278 -404 -392 -407 -468 -420 -506 -581 0 -21 -7 0 0 0 0 0 0 0 0 0 0 0 0 0 0 0 0 0 0 0 0 0 0 0 0 0 0
Wind_Speed
14 14 13 12 11 9 20 22 16 22 16 16 23 17 19 15 16 15 22 25 27 27 26 25 25 24 24 24 23 23 23 22 22 22 22 22 22 22 23 22 22 22 22 22 21 21 20 20 19
14 14 13 14 11 8 3 21 22 23 26 26 21 20 14 15 16 23 26 25 28 26 26 25 24 24 24 23 23 23 22 22 22 22 22 23 22 22 22 22 22 22 22 21 21 20 20 19 19
14 14 12 13 10 14 16 12 22 24 25 16 18 18 15 17 23 27 24 28 27 26 26 26 25 24 23 23 22 23 22 22 22 22 23 23 23 23 22 21 21 21 21 20 20 20 19 19 20
14 12 11 11 15 16 9 17 23 24 19 14 23 23 20 18 25 25 27 28 26 26 26 26 25 24 23 22 22 22 22 22 22 22 22 22 22 21 22 21 21 20 20 19 19 19 19 19 19
13 13 12 12 13 14 12 16 21 23 16 19 17 19 20 22 22 25 28 27 26 26 25 25 24 23 23 22 22 22 22 22 22 22 22 21 20 20 21 21 21 20 19 19 19 18 18 18 18
12 12 11 12 12 12 13 10 20 13 21 22 22 21 18 22 24 25 26 26 25 25 25 24 24 23 23 22 22 22 22 22 22 22 22 22 21 21 22 21 21 21 20 19 18 18 17 17 17
12 14 11 13 13 10 9 11 12 20 21 20 22 19 20 25 25 25 25 25 25 24 24 23 23 23 22 22 22 22 22 22 22 23 23 23 23 22 22 21 20 20 19 19 18 17 16 15 16
14 12 11 12 13 11 7 15 13 17 7 22 22 19 18 26 26 25 27 27 26 25 24 23 22 22 21 21 22 22 23 23 23 23 23 23 23 22 22 21 20 20 19 18 18 17 16 15 15
13 10 9 11 13 14 15 13 12 14 19 10 14 19 22 27 26 25 26 26 24 24 24 22 21 21 21 21 21 22 23 24 24 24 24 24 24 23 22 21 20 18 17 16 17 16 15 14 13
12 8 9 12 15 15 10 16 12 10 17 12 17 20 25 24 26 26 25 25 24 24 24 23 21 21 21 20 21 22 23 24 24 24 24 24 23 22 21 21 19 18 17 16 15 14 12 12 12
12 12 15 21 17 15 19 19 21 14 14 15 19 22 24 24 24 24 25 25 25 24 22 23 22 21 21 20 20 22 22 23 23 22 21 21 20 19 19 18 17 17 16 16 14 13 12 11 10
20 16 22 21 20 18 18 17 10 11 17 16 19 22 23 23 24 23 23 24 23 22 22 22 22 22 21 20 21 22 22 21 20 20 19 19 18 17 16 15 15 14 14 13 12 11 10 9 8
27 24 25 25 23 24 8 12 7 6 10 15 19 19 20 21 23 23 22 21 21 21 20 23 22 23 23 21 22 23 21 19 19 18 17 16 16 15 14 13 12 12 11 10 9 8 7 6 5
19 29 29 27 25 19 8 6 5 9 10 12 15 17 18 21 22 22 20 20 20 20 21 22 24 24 24 24 22 22 20 19 18 17 15 14 13 12 10 9 9 8 7 7 6 5 4 2 3
20 31 31 28 21 21 10 5 8 7 10 12 15 16 18 20 21 22 22 21 21 22 22 22 22 23 23 23 23 21 19 17 16 15 14 12 11 10 8 7 6 5 4 4 4 4 6 4 5
21 20 31 22 24 15 13 5 20 10 11 13 15 16 18 20 23 21 21 21 21 21 22 22 22 22 22 22 20 18 16 14 13 12 11 10 10 8 5 3 3 4 7 7 9 12 14 13 11
20 15 23 34 19 18 18 21 21 9 13 13 17 16 19 20 20 21 19 20 21 23 22 22 21 21 20 19 17 15 12 10 8 7 6 6 3 4 2 2 4 7 9 10 11 13 15 17 16
20 18 21 22 20 25 28 27 25 13 14 15 17 16 18 19 19 20 19 17 17 20 19 19 18 16 14 12 9 6 5 4 4 4 5 6 6 6 5 6 7 10 13 15 15 16 17 17 19
23 24 27 29 32 31 35 35 22 11 14 12 14 17 18 19 18 16 15 15 13 14 15 15 14 12 10 7 5 2 1 2 4 5 7 8 9 10 11 11 12 13 14 16 17 19 19 19 20
26 29 32 32 24 21 30 39 30 10 20 20 18 19 23 18 12 13 10 13 14 15 14 12 13 10 10 6 1 6 7 9 11 14 16 19 18 16 15 15 16 16 17 17 17 16 20 19 19
29 28 28 30 32 31 31 34 28 11 14 17 16 22 17 16 12 11 12 13 12 12 12 11 10 8 6 2 6 10 13 16 19 21 22 25 26 26 22 19 18 18 17 17 20 20 19 23 23
35 26 28 31 29 32 22 41 32 15 19 20 21 17 17 9 4 4 7 6 6 4 2 2 3 2 3 5 7 9 12 15 20 22 22 25 28 28 29 26 24 23 21 20 22 22 24 26 28
33 32 32 32 31 33 31 26 29 22 16 20 16 13 11 11 8 7 6 6 5 3 3 2 2 4 6 8 13 13 16 18 17 19 22 25 26 27 27 25 24 23 24 21 23 24 27 25 25
30 30 32 29 29 34 33 26 30 24 17 16 16 16 13 11 11 11 10 10 9 8 7 5 6 9 10 11 11 14 15 15 16 18 22 24 25 26 27 26 25 23 24 24 23 23 23 23 24
28 26 29 31 30 34 27 28 28 27 18 13 13 10 10 11 10 11 13 15 14 13 12 9 9 11 12 13 14 14 14 14 17 20 21 23 25 26 27 25 24 24 23 22 22 21 22 23 22
25 21 24 30 30 32 27 32 29 25 9 7 8 6 5 5 7 8 9 12 16 13 12 13 12 12 12 13 14 13 14 16 18 19 20 22 23 23 23 23 23 23 22 22 22 22 22 22 22
23 28 25 31 31 33 29 25 21 15 11 8 8 6 5 4 5 7 8 10 13 17 18 16 13 14 15 13 14 15 16 17 18 19 20 21 22 22 21 22 22 22 22 23 23 23 23 23 23
23 23 28 26 34 37 33 32 30 21 16 13 11 10 7 5 5 5 6 10 14 15 13 15 14 13 13 14 15 16 17 19 19 20 21 21 21 21 21 22 22 22 23 23 23 24 24 24 24
32 30 27 28 30 36 38 39 21 17 14 14 14 11 6 3 1 1 5 8 9 10 10 10 13 13 14 15 16 17 19 19 20 21 20 20 21 21 21 21 22 22 23 23 24 24 24 24 24
36 38 33 35 36 31 34 36 25 17 14 12 11 7 7 7 9 5 5 10 14 7 7 9 12 13 14 15 17 18 18 19 20 20 20 20 20 21 21 21 21 22 23 23 23 24 24 24 24
Wind_Direction
204 204 206 213 198 196 28 83 127 93 135 152 128 125 108 129 119 108 138 123 119 119 117 116 111 109 110 110 105 102 99 97 95 95 91 92 91 92 96 97 97 95 99 104 105 107 104 103 104
209 198 190 181 347 328 11 51 68 95 98 92 99 103 132 99 146 113 111 119 120 116 115 114 111 109 107 105 102 101 98 96 94 92 90 93 91 92 92 93 94 95 99 105 107 112 109 114 113
227 200 221 343 327 158 79 65 86 90 100 127 110 109 115 112 110 117 116 118 117 115 117 116 113 108 102 99 97 101 98 95 91 91 85 90 87 94 89 88 89 91 95 103 107 112 109 113 111
217 241 296 277 339 95 162 57 99 93 108 132 82 70 108 143 110 122 115 118 113 118 120 117 114 109 101 96 94 96 97 95 90 84 84 87 82 77 89 84 86 91 94 98 102 102 100 101 109
280 294 302 324 321 158 249 75 101 87 119 103 114 95 120 130 97 105 115 118 117 119 118 117 114 108 103 97 93 93 95 96 95 92 90 86 82 73 87 85 85 88 91 97 99 100 100 97 103
285 292 326 326 281 219 284 142 138 95 88 70 56 67 134 105 103 111 116 119 119 117 118 116 114 110 107 100 95 95 95 97 97 95 94 94 92 91 90 92 95 99 102 107 116 117 117 115 116
312 315 320 314 298 294 322 347 312 69 71 81 73 27 108 123 117 112 118 119 122 121 120 119 115 115 112 105 100 100 98 97 99 103 107 106 105 107 105 98 97 102 106 111 117 122 125 123 120
305 329 328 320 321 291 17 261 13 104 87 87 83 61 104 138 122 114 123 128 129 128 126 123 116 115 111 109 107 104 103 102 105 105 104 103 101 103 105 105 106 109 112 114 112 111 114 121 121
319 327 332 338 4 355 240 311 298 223 90 184 167 80 112 122 117 109 118 128 127 133 133 127 121 119 115 113 112 111 111 109 108 107 103 105 110 113 110 107 111 110 117 123 126 124 120 119 129
314 318 323 303 289 306 255 290 72 267 146 280 11 58 98 111 121 121 125 130 132 138 140 135 130 127 122 114 117 119 117 115 116 113 111 110 111 111 108 110 113 113 117 128 137 138 134 124 119
303 285 285 260 236 197 240 242 192 89 120 95 81 95 109 118 127 128 134 134 138 140 137 142 138 133 129 119 121 127 126 126 128 119 114 113 117 116 115 114 117 114 111 116 120 122 112 108 107
266 286 274 256 261 339 230 197 74 99 250 93 96 105 113 125 135 134 138 142 134 134 138 140 141 142 138 127 130 136 131 125 127 125 124 122 125 126 123 121 118 115 110 102 101 104 99 97 95
253 272 275 262 258 307 54 126 92 162 16 81 99 105 114 128 137 140 140 137 136 135 136 145 143 147 147 143 143 145 141 130 135 135 135 133 132 133 131 124 122 124 117 113 100 90 79 79 86
289 251 263 272 263 333 17 359 344 325 79 83 105 118 118 134 141 144 141 141 143 141 143 143 151 152 151 154 151 151 149 148 145 143 145 147 147 141 130 132 123 128 128 130 116 107 88 101 59
292 255 261 273 300 316 8 28 317 98 106 109 127 125 131 142 145 152 150 148 150 151 150 149 150 153 155 158 162 157 155 154 156 159 157 156 157 160 142 126 115 109 91 85 63 44 26 20 10
285 290 260 276 282 321 325 308 182 135 129 136 136 135 143 153 159 153 153 154 155 154 155 154 154 156 159 162 161 158 157 156 157 161 165 173 176 171 153 113 100 44 20 11 5 358 356 359 358
288 290 278 254 293 300 301 294 224 156 155 149 152 147 153 158 160 164 155 156 157 161 159 159 157 159 161 160 158 156 145 139 132 136 154 169 156 193 216 304 330 350 351 351 346 343 345 346 348
286 284 285 282 281 285 282 281 291 176 172 167 163 158 160 165 166 162 160 156 155 161 160 159 157 153 144 131 119 103 88 88 40 24 12 9 1 351 330 310 308 325 332 335 338 339 338 336 334
284 283 280 276 269 280 270 273 305 198 190 181 175 172 169 172 167 158 150 151 149 155 157 158 154 149 138 125 122 107 128 27 352 344 338 335 330 327 326 319 314 317 318 326 330 333 335 336 340
278 276 272 274 283 295 281 265 287 220 198 191 186 180 182 172 158 155 144 154 159 164 166 162 164 158 161 162 51 346 343 343 341 338 336 332 332 330 323 316 315 318 317 315 316 323 331 333 339
277 275 277 277 279 285 286 283 288 265 225 207 197 189 183 180 172 162 159 162 160 166 171 173 175 177 181 200 343 339 336 333 331 331 332 331 330 330 328 323 316 316 316 317 324 325 327 325 330
273 281 279 278 284 276 293 277 286 282 213 209 201 200 195 204 259 201 176 161 162 151 167 183 203 233 293 310 319 327 325 327 332 331 334 335 335 336 335 333 331 330 330 328 330 330 329 324 326
278 279 278 276 278 281 279 289 287 296 240 209 229 225 245 272 277 284 292 308 324 345 339 2 337 304 299 310 313 316 323 330 334 337 339 341 344 345 346 347 346 344 341 336 336 332 331 333 334
288 286 281 278 275 271 271 283 285 290 266 247 253 265 262 277 286 301 310 312 320 327 323 354 343 342 334 327 321 322 325 335 342 345 346 345 345 345 347 349 349 349 348 344 344 344 344 343 345
285 283 279 273 265 267 272 277 284 294 278 258 253 266 270 285 293 303 307 308 316 316 318 330 339 341 342 339 342 347 346 353 350 347 348 347 346 349 351 353 355 355 356 357 359 360 358 356 357
279 277 273 273 272 274 270 271 278 293 282 248 264 267 286 300 313 322 327 325 322 324 334 336 348 352 355 355 0 6 3 357 356 355 355 354 354 356 358 3 5 6 8 7 7 6 5 4 2
282 271 280 277 277 277 270 273 286 288 277 255 249 253 267 286 311 324 333 334 338 317 317 319 348 354 353 9 16 14 10 6 3 4 2 1 3 6 12 13 14 17 18 16 13 10 7 5 2
278 281 275 275 270 267 270 269 266 263 259 252 251 256 256 272 292 310 340 346 335 322 331 343 359 19 17 13 13 14 14 12 10 11 11 13 17 19 17 18 20 20 19 16 14 10 7 5 2
276 274 272 275 271 267 269 267 273 254 238 243 253 254 244 241 244 331 351 331 352 333 359 22 37 34 23 23 25 22 20 19 18 17 19 20 20 21 20 17 16 17 18 15 12 8 4 1 360
280 273 269 264 267 272 267 268 273 260 249 240 243 248 270 291 296 336 46 34 72 61 34 14 34 20 20 22 24 25 25 20 20 22 23 21 18 17 16 16 17 18 15 15 11 8 6 7 6